logo
Games tagged Pirates
# Game Release date
Price
Score rank
(Userscore / Metascore)
Owners
Players
Playtime (Median)
Developer(s)
Publisher(s)
1 Return of the Obra Dinn Oct 18, 2018 $19.99N/A (N/A/89%)500,000 .. 1,000,0000%00:00 (00:00)Lucas Pope3909
2 The Curse of Monkey Island Oct 31, 1997 $6.99N/A (N/A/89%)100,000 .. 200,0000%00:00 (00:00)LucasArtsLucasArts, Lucasfilm, Disney
3 Sid Meier's Pirates! Jul 11, 2005 $9.99N/A (N/A/88%)500,000 .. 1,000,0000%00:00 (00:00)Firaxis Games2K
4 Pillars of Eternity II: Deadfire May 8, 2018 $39.99N/A (N/A/88%)500,000 .. 1,000,0000%00:00 (00:00)Obsidian EntertainmentVersus Evil, Obsidian Entertainment
5 Monkey Island 2 Special Edition: LeChuck’s Revenge Jul 7, 2010 $9.99N/A (N/A/87%)200,000 .. 500,0000%00:00 (00:00)LucasArtsLucasArts, Lucasfilm, Disney
6 Sins of a Solar Empire: Trinity Nov 16, 2011 $19.99N/A (N/A/87%)100,000 .. 200,0000%00:00 (00:00)Ironclad Games, Stardock EntertainmentStardock Entertainment
7 The Secret of Monkey Island: Special Edition Jul 15, 2009 $9.99N/A (N/A/86%)500,000 .. 1,000,0000%00:00 (00:00)LucasArtsLucasArts, Lucasfilm, Disney
8 Escape from Monkey Island Nov 9, 2000 $6.99N/A (N/A/86%)100,000 .. 200,0000%00:00 (00:00)LucasArtsLucasfilm, Disney
9 Sins of a Solar Empire: Rebellion Jun 12, 2012 $39.99N/A (N/A/82%)2,000,000 .. 5,000,0000.25%07:04 (02:21)Ironclad Games, Stardock EntertainmentStardock Entertainment
10 Nelly Cootalot: The Fowl Fleet Mar 22, 2016 $19.99N/A (N/A/81%)20,000 .. 50,0000%00:00 (00:00)Alasdair Beckett-King, Application Systems HeidelbergApplication Systems Heidelberg
11 Flinthook Apr 18, 2017 $14.99N/A (N/A/80%)100,000 .. 200,0000%00:00 (00:00)Tribute Games Inc.Tribute Games Inc.
12 ArcheAge Mar 26, 2015 FreeN/A (N/A/80%)1,000,000 .. 2,000,0000%00:00 (00:00)XLGAMESKakao Games Europe B.V.
13 Time Commando Oct 9, 2021 $5.99N/A (N/A/80%)500,000 .. 1,000,0000%00:00 (00:00)[2.21][2.21]
14 Nelly Cootalot: Spoonbeaks Ahoy! HD May 22, 2019 $1.99N/A (N/A/80%)20,000 .. 50,0000%00:00 (00:00)Alasdair Beckett-King, Application Systems HeidelbergApplication Systems Heidelberg
15 Hero-U: Rogue to Redemption Jul 10, 2018 $29.99N/A (N/A/80%)20,000 .. 50,0000%00:00 (00:00)Transolar GamesTransolar Games
16 Tales of Monkey Island: Complete Season Jul 7, 2009 $14.99N/A (N/A/79%)200,000 .. 500,0000%00:00 (00:00)TelltaleTelltale
17 Gothic II: Gold Edition Nov 29, 2005 $9.99N/A (N/A/79%)500,000 .. 1,000,0001.43%01:23 (00:27)Piranha BytesTHQ Nordic
18 Pirates Outlaws Aug 28, 2019 $19.99N/A (N/A/79%)20,000 .. 50,0000%00:00 (00:00)Fabled GameFabled Game
19 Port Royale 2 Jun 16, 2009 $4.99N/A (N/A/75%)50,000 .. 100,0000%00:00 (00:00)Ascaron Entertainment ltd.Strategy First
20 Assassin’s Creed Rogue Mar 9, 2015 $19.99N/A (N/A/74%)500,000 .. 1,000,0001.82%00:01 (00:00)Ubisoft Sofia, Ubisoft KievUbisoft
21 Space Pirates and Zombies Aug 15, 2011 $9.99N/A (N/A/74%)500,000 .. 1,000,0000%00:00 (00:00)MinMax Games Ltd.MinMax Games Ltd.
22 AirBuccaneers Jul 1, 1989 N/AN/A (N/A/74%)100,000 .. 200,0000%00:00 (00:00)LudoCraft Ltd.LudoCraft Ltd.
23 Nantucket Jan 18, 2018 $5.39N/A (N/A/74%)100,000 .. 200,0000%00:00 (00:00)Picaresque StudioFish Eagle
24 Jolly Rover Jun 7, 2010 $9.99N/A (N/A/71%)100,000 .. 200,0000%00:00 (00:00)BrawsomeBrawsome
25 Sea Dogs Nov 25, 2000 $11.99N/A (N/A/71%)50,000 .. 100,0000%00:00 (00:00)AkellaAkella
26 Willy Morgan and the Curse of Bone Town Aug 11, 2020 $19.99N/A (N/A/71%)0 .. 20,0000%00:00 (00:00)imaginarylabLeonardo Interactive, WhisperGames
27 Battlewake Sep 10, 2019 $29.99N/A (N/A/70%)0 .. 20,0000%00:00 (00:00)SurviosSurvios
28 Risen 2: Dark Waters Apr 26, 2012 $9.99N/A (N/A/69%)1,000,000 .. 2,000,0000%00:00 (00:00)Piranha BytesTHQ Nordic
29 Here Be Dragons Aug 16, 2019 $9.99N/A (N/A/69%)0 .. 20,0000%00:00 (00:00)Red Zero GamesRed Zero Games
30 Commander: Conquest of the Americas Jul 30, 2010 $9.99N/A (N/A/68%)50,000 .. 100,0000%00:00 (00:00)Nitro GamesNitro Games
31 Port Royale 4 Sep 25, 2020 $39.99N/A (N/A/68%)50,000 .. 100,00025%01:01 (00:20)Gaming MindsKalypso Media
32 East India Company Jul 31, 2009 $9.99N/A (N/A/67%)50,000 .. 100,0000%00:00 (00:00)Nitro GamesNitro Games
33 Ghost Pirates of Vooju Island Jan 27, 2015 $9.99N/A (N/A/66%)0 .. 20,0000%00:00 (00:00)Autumn MoonViva Media
34 Risen 3 - Titan Lords Aug 12, 2014 $14.99N/A (N/A/65%)500,000 .. 1,000,0000%00:00 (00:00)Piranha BytesTHQ Nordic
35 The Guild II - Pirates of the European Seas Jun 24, 2010 $9.99N/A (N/A/63%)100,000 .. 200,0000%00:00 (00:00)4HEAD StudiosTHQ Nordic
36 Windward May 12, 2015 $9.99N/A (N/A/61%)200,000 .. 500,0000%00:00 (00:00)Tasharen Entertainment Inc.Tasharen Entertainment Inc.
37 Sea Dogs: City of Abandoned Ships May 12, 2009 $7.99N/A (N/A/61%)20,000 .. 50,0000%00:00 (00:00)AkellaAkella
38 Tempest: Pirate Action RPG Aug 22, 2016 $3.74N/A (N/A/60%)100,000 .. 200,0000%00:00 (00:00)Lion's ShadeHeroCraft PC
39 Pirates of Black Cove Aug 2, 2011 $9.99N/A (N/A/56%)50,000 .. 100,0000%00:00 (00:00)Nitro GamesPlaydead
40 BATTLECREW Space Pirates Jul 10, 2017 FreeN/A (N/A)100,000 .. 200,0000%00:00 (00:00)DONTNOD ELEVENDONTNOD ELEVEN
41 Son Korsan May 30, 2017 FreeN/A (N/A)20,000 .. 50,0000%00:00 (00:00)Consala GamesConsala Games
42 Worlds Adrift May 24, 2017 N/AN/A (N/A)100,000 .. 200,0000%00:00 (00:00)Bossa StudiosBossa Studios
43 Man O' War: Corsair - Warhammer Naval Battles Apr 19, 2017 N/AN/A (N/A)20,000 .. 50,0000%00:00 (00:00)Evil Twin ArtworksEvil Twin Artworks
44 The Pirate: Caribbean Hunt Aug 24, 2016 FreeN/A (N/A)500,000 .. 1,000,0000%00:00 (00:00)Home Net GamesHome Net Games
45 Puzzle Pirates Aug 31, 2011 FreeN/A (N/A)200,000 .. 500,0000%00:00 (00:00)Grey Havens, LLCGrey Havens, LLC
46 Pirates, Vikings, and Knights II Feb 12, 2010 FreeN/A (N/A)1,000,000 .. 2,000,0000%00:00 (00:00)Octoshark StudiosOctoshark Studios
47 Age of Booty Mar 9, 2009 N/AN/A (N/A)20,000 .. 50,0000%00:00 (00:00)Certain Affinity™Capcom
48 Tradewinds Classics Oct 1, 1989 N/AN/A (N/A)0 .. 20,0000%00:00 (00:00)Sandlot GamesSandlot Games
49 Sid Meier's Pirates! Gold Plus (Classic) Jan 1, 1987 $6.99N/A (N/A)20,000 .. 50,0000%00:00 (00:00)MicroProse Software, IncRetroism, Nightdive Studios
50 SugarWinds: Prologue Jan 27, 2022 FreeN/A (N/A)50,000 .. 100,0000%00:00 (00:00)Aatlantis CodeAatlantis Code
51 IWOCon 2021 Mar 26, 2021 N/AN/A (N/A)20,000 .. 50,0000%00:00 (00:00)Indie World OrderIndie World Order
52 Save the Pirate: Sea Story Feb 25, 2021 FreeN/A (N/A)0 .. 20,0000%00:00 (00:00)MaurisMauris
53 Batterneers Dec 1, 2020 FreeN/A (N/A)0 .. 20,0000%00:00 (00:00)Batterneers DevBatterneers Dev
54 Tribal Wars Nov 12, 2020 FreeN/A (N/A)50,000 .. 100,0000%00:00 (00:00)InnoGamesInnoGames
55 Chaos Combat Chess Oct 20, 2020 N/AN/A (N/A)20,000 .. 50,0000%00:00 (00:00)This Game StudioRogue Games, Inc.
56 Turtle's Quest Aug 26, 2020 FreeN/A (N/A)20,000 .. 50,0000%00:00 (00:00)Kid's RevoltKid's Revolt
57 Penny's Path Jul 24, 2020 FreeN/A (N/A)0 .. 20,0000%00:00 (00:00)Strategic Thinking LLCStrategic Thinking LLC
58 Paper Pirates Feb 28, 2020 $8.99N/A (N/A)0 .. 20,0000%00:00 (00:00)Iteration GamesIteration Games
59 Maelstrom Sep 20, 2019 FreeN/A (N/A)200,000 .. 500,0000%00:00 (00:00)Gunpowder Games, Inc.Double Jump Publishing
60 Dandy & Randy Sep 2, 2019 N/AN/A (N/A)0 .. 20,0000%00:00 (00:00)Asteristic Game StudioAsteristic Game Studio
61 Uncharted Waters Online Dec 19, 2018 FreeN/A (N/A)50,000 .. 100,0000%00:00 (00:00)KOEI TECMO GAMES CO., LTD.Papaya Play
62 Puzzle Plunder Oct 9, 2018 FreeN/A (N/A)20,000 .. 50,0000%00:00 (00:00)WindybeardWindybeard
63 Unearned Bounty Aug 22, 2018 FreeN/A (N/A)100,000 .. 200,0000%00:00 (00:00)Extrokold GamesExtrokold Games
64 Crooked Waters Jul 13, 2018 FreeN/A (N/A)0 .. 20,0000%00:00 (00:00)Craft Game StudioCraft Game Studio
65 Puzzle Pirates: Dark Seas Jul 6, 2018 FreeN/A (N/A)50,000 .. 100,0000%00:00 (00:00)Grey Havens, LLCGrey Havens, LLC
66 The Pirates of Sector 7 Jun 1, 2018 FreeN/A (N/A)0 .. 20,0000%00:00 (00:00)Kneeling Bean StudiosLegacy Gameworks
67 League of Pirates Mar 13, 2018 N/AN/A (N/A)0 .. 20,0000%00:00 (00:00)upjersupjers
68 The Pirate: Plague of the Dead Oct 13, 2017 FreeN/A (N/A)100,000 .. 200,0000%00:00 (00:00)Home Net GamesHome Net Games
69 The Zwuggels - A Beach Holiday Adventure for Kids Jul 20, 2017 $2.99N/A (N/A)0 .. 20,0000%00:00 (00:00)Ploosh GmbHPloosh GmbH
70 Robot Pirates Jun 9, 2017 $0.79N/A (N/A)0 .. 20,0000%00:00 (00:00)Tydecon GamesTydecon Games
71 Lone Pirate VR May 26, 2017 $0.99N/A (N/A)0 .. 20,0000%00:00 (00:00)b08b08
72 Landless May 10, 2017 $14.99N/A (N/A)0 .. 20,0000%00:00 (00:00)CodeBulletCodeBullet
73 Neighboring Islands Apr 30, 2017 $0.74N/A (N/A)50,000 .. 100,0000%00:00 (00:00)Angry gamesAngry games
74 Space Station Loma: OPERATIONS Mar 17, 2017 $13.99N/A (N/A)0 .. 20,0000%00:00 (00:00)SpielmannSpiel, bisonSpielmannSpiel
75 Winds Of Trade Feb 13, 2017 $11.99N/A (N/A)0 .. 20,0000%00:00 (00:00)Hermes InteractiveHermes Interactive
76 HoD: On open seas Jul 20, 2015 $0.99N/A (N/A)0 .. 20,0000%00:00 (00:00)Pirate goup mediaPirate group media
77 Heroes of the Seven Seas VR Oct 14, 2016 $6.99N/A (N/A)0 .. 20,0000%00:00 (00:00)Mirage Interactive, 北京魔视互动科技有限公司Mirage Interactive, 北京魔视互动科技有限公司
78 Smash Up Oct 12, 2016 $6.99N/A (N/A)20,000 .. 50,0000%00:00 (00:00)Nomad GamesNomad Games
79 Duke Grabowski, Mighty Swashbuckler Oct 6, 2016 $1.99N/A (N/A)20,000 .. 50,0000%00:00 (00:00)Venture Moon IndustriesAlliance Digital Media
80 VROOM: Galleon Sep 5, 2016 $6.99N/A (N/A)0 .. 20,0000%00:00 (00:00)VROOMVROOM
81 One Piece Burning Blood Sep 1, 2016 $7.49N/A (N/A)100,000 .. 200,0000%00:00 (00:00)Spike Chunsoft Co., Ltd.BANDAI NAMCO Entertainment
82 Archipelago Aug 17, 2016 $0.99N/A (N/A)0 .. 20,0000%00:00 (00:00)TortTort
83 The Last Leviathan Jun 22, 2016 $9.99N/A (N/A)50,000 .. 100,0000%00:00 (00:00)Super Punk GamesSuper Punk Games
84 V ARRR Jun 10, 2016 $9.99N/A (N/A)0 .. 20,0000%00:00 (00:00)Blackjard SoftworksBlackjard Softworks
85 Choice of the Pirate May 20, 2016 $3.99N/A (N/A)0 .. 20,0000%00:00 (00:00)Choice of GamesChoice of Games
86 Skyhook May 17, 2016 $4.99N/A (N/A)0 .. 20,0000%00:00 (00:00)Megastorm GamesMegastorm Games
87 Assassins vs Pirates May 10, 2016 $7.99N/A (N/A)0 .. 20,0000%00:00 (00:00)DEADBITDEADBIT
88 Pixel Survivors May 5, 2016 $3.99N/A (N/A)50,000 .. 100,0000%00:00 (00:00)PatagoniartPatagoniart
89 The Inner Sea Mar 30, 2016 $11.99N/A (N/A)0 .. 20,0000%00:00 (00:00)dsquaredsquare
90 Blood and Gold: Caribbean! Dec 10, 2015 $19.99N/A (N/A)50,000 .. 100,0000%00:00 (00:00)Snowbird GamesSnowbird Games
91 Astrox: Hostile Space Excavation Dec 1, 2015 $9.99N/A (N/A)20,000 .. 50,0000%00:00 (00:00)Jace MasulaJace Masula
92 Vendetta - Curse of Raven's Cry Nov 20, 2015 $29.99N/A (N/A)200,000 .. 500,0000%00:00 (00:00)Reality Pump StudiosTopWare Interactive, ACE
93 Caribbean Odyssey Nov 12, 2015 $9.99N/A (N/A)0 .. 20,0000%00:00 (00:00)Imran ArafatReality Gameware
94 Swords & Crossbones: An Epic Pirate Story Sep 30, 2015 $4.99N/A (N/A)0 .. 20,0000%00:00 (00:00)Epic Devs LLCEpic Devs LLC
95 Black Sails - The Ghost Ship Sep 17, 2015 $9.99N/A (N/A)50,000 .. 100,0000%00:00 (00:00)Deck13Deck13
96 Braveland Pirate Sep 15, 2015 $9.99N/A (N/A)0 .. 20,0000%00:00 (00:00)Tortuga TeamTortuga Team
97 One Piece Pirate Warriors 3 Aug 27, 2015 $5.99N/A (N/A)500,000 .. 1,000,0002.63%16:00 (05:20)KOEI TECMO GAMES CO., LTD.BANDAI NAMCO Entertainment
98 Pixel Piracy Jul 31, 2014 $9.99N/A (N/A)200,000 .. 500,0000%00:00 (00:00)Vitali Kirpu
99 Shantae and the Pirate's Curse Apr 23, 2015 $19.99N/A (N/A)100,000 .. 200,0000%00:00 (00:00)WayForwardWayForward
100 Pirate's Life Apr 17, 2015 $4.99N/A (N/A)0 .. 20,0000%00:00 (00:00)Team EyepatchNone
101 Distant Star: Revenant Fleet Apr 7, 2015 $9.99N/A (N/A)50,000 .. 100,0000%00:00 (00:00)Blazing GriffinBlazing Griffin
102 Hero of the Kingdom II Feb 20, 2015 $1.99N/A (N/A)100,000 .. 200,0000%00:00 (00:00)Lonely TroopsLonely Troops
103 Robinson Crusoe and the Cursed Pirates Feb 10, 2015 $9.99N/A (N/A)20,000 .. 50,0000%00:00 (00:00)MagicIndieMumboJumbo
104 Forsaken Isle Feb 6, 2015 $7.99N/A (N/A)20,000 .. 50,0000%00:00 (00:00)SmoodlezSmoodlez
105 Pirate Hell Nov 7, 2014 $5.99N/A (N/A)20,000 .. 50,0000%00:00 (00:00)Sascha HartlebSascha Hartleb
106 LEGO Pirates of the Caribbean: The Video Game Oct 6, 2014 $19.99N/A (N/A)200,000 .. 500,0006.67%00:01 (00:00)Traveller's TalesDisney
107 Heileen 3: New Horizons Dec 12, 2012 $24.99N/A (N/A)0 .. 20,0000%00:00 (00:00)Winter WolvesWinter Wolves
108 Nightmares from the Deep 3: Davy Jones Mar 27, 2014 N/AN/A (N/A)50,000 .. 100,0000%00:00 (00:00)Artifex MundiArtifex Mundi
109 Assassin's Creed Freedom Cry Feb 25, 2014 $14.99N/A (N/A)200,000 .. 500,0000%00:00 (00:00)Ubisoft MontrealUbisoft
110 Dead Man's Draw Feb 6, 2014 $6.99N/A (N/A)50,000 .. 100,0000%00:00 (00:00)Stardock EntertainmentStardock Entertainment
111 Captain Morgane and the Golden Turtle Jan 3, 2014 $4.99N/A (N/A)20,000 .. 50,0000%00:00 (00:00)WizarBoxReef Entertainment
112 Nightmares from the Deep 2: The Siren`s Call Jul 24, 2013 N/AN/A (N/A)50,000 .. 100,0000%00:00 (00:00)Artifex MundiArtifex Mundi
113 Pirates vs Corsairs: Davy Jones's Gold Mar 16, 2015 $4.99N/A (N/A)20,000 .. 50,0000%00:00 (00:00)Little World StudioGames For All
114 Sea Dogs: To Each His Own - Pirate Open World RPG Feb 12, 2016 $14.99N/A (N/A)200,000 .. 500,0000%00:00 (00:00)BlackMark StudioAkella, Valkyrie Initiative
115 Port Royale 3 May 4, 2012 $14.99N/A (N/A)200,000 .. 500,0000%00:00 (00:00)Gaming Minds StudiosKalypso Media Digital
116 Nightmares from the Deep: The Cursed Heart Apr 19, 2012 N/AN/A (N/A)100,000 .. 200,0000%00:00 (00:00)Artifex MundiArtifex Mundi
117 Woody Two-Legs: Attack of the Zombie Pirates Nov 2, 2010 $4.99N/A (N/A)20,000 .. 50,0000%00:00 (00:00)Nitro GamesNitro Games
118 Zombie Pirates Apr 20, 2011 $14.99N/A (N/A)0 .. 20,0000%00:00 (00:00)Dust Devil Studios Inc.Strategy First
119 Tropico Reloaded Jul 26, 2009 $6.99N/A (N/A)200,000 .. 500,0000%00:00 (00:00)PopTop Software, BreakAway Games, Frog City SoftwareKalypso Media Digital
120 Disney Pirates of the Caribbean: At Worlds End Oct 6, 2014 $19.99N/A (N/A)20,000 .. 50,0000%00:00 (00:00) Eurocom Entertainment SoftwareDisney
121 Disney's Treasure Planet: Battle of Procyon Feb 24, 2015 $9.99N/A (N/A)20,000 .. 50,0000%00:00 (00:00)Barking Dog StudiosDisney
122 El Tesoro de Isla Alcachofa Aug 8, 2000 $11.99N/A (N/A)20,000 .. 50,0000%00:00 (00:00)Alcachofa SoftErbe Software
123 Sea Legends Oct 2, 2020 $6.99N/A (N/A)20,000 .. 50,0000%00:00 (00:00)Mir Dialogue, OceanZiggurat
124 Assassin’s Creed IV Black Flag $39.99N/A (N/A)5,000,000 .. 10,000,0000.55%03:30 (01:10)Ubisoft MontrealUbisoft
125 JumpBeard May 12, 2022 $9.99N/A (N/A)0 .. 20,0000%00:00 (00:00)RealPlayers ProductionRealPlayers Production
126 The Struggle of Combat May 6, 2022 $7.99N/A (N/A)0 .. 20,0000%00:00 (00:00)YrbiaxYrbiax
127 TIME TO HUNT May 6, 2022 N/AN/A (N/A)0 .. 20,0000%00:00 (00:00)Wuhan NetCiao Technology Co., LtdWuhan NetCiao Technology Co., Ltd
128 Sea of Craft Apr 28, 2022 $14.99N/A (N/A)20,000 .. 50,000100%01:41 (01:41)Wizard GamesWizard Games
129 Maritime Calling Apr 12, 2022 $9.74N/A (N/A)0 .. 20,0000%00:00 (00:00)Tiamat GamesTiamat Games
130 Chest Mate Apr 8, 2022 $4.99N/A (N/A)0 .. 20,0000%00:00 (00:00)OptizOnionOptizOnion
131 Pirates of Gravitae Mar 31, 2022 $9.99N/A (N/A)0 .. 20,0000%00:00 (00:00)Innerverse GamesInnerverse Games
132 Void Marauders Mar 29, 2022 $11.99N/A (N/A)0 .. 20,0000%00:00 (00:00)AutarcaAutarca
133 Epic Pirate Mar 25, 2022 $0.69N/A (N/A)0 .. 20,0000%00:00 (00:00)Archor WrightArchor Games
134 Valley Dash Mar 21, 2022 $1.99N/A (N/A)0 .. 20,0000%00:00 (00:00)Levi Isaac, White RoseWhite Rose
135 Lost Souls Mar 21, 2022 $6.99N/A (N/A)0 .. 20,0000%00:00 (00:00)Vitaliy Tyschenkokind of mind
136 Pixel Pirate Mar 18, 2022 $24.99N/A (N/A)0 .. 20,0000%00:00 (00:00)Stas Paty9mkinPiece Of Voxel
137 Pompom Mar 14, 2022 $14.99N/A (N/A)20,000 .. 50,0000%00:00 (00:00)TOMO CAMPPID Games
138 Buccaneers! Mar 7, 2022 $17.99N/A (N/A)0 .. 20,0000%00:00 (00:00)Skyward DigitalValkyrie Initiative
139 Pirate's Gold Mar 1, 2022 $9.99N/A (N/A)20,000 .. 50,0000%00:00 (00:00)Jochen Heizmann, Emmanuel HennéAsylum Square
140 Behind Border Zone Feb 23, 2022 $14.99N/A (N/A)0 .. 20,0000%00:00 (00:00)SoerGameSoerGame
141 Helm or High Water Feb 17, 2022 $14.99N/A (N/A)0 .. 20,0000%00:00 (00:00)Jordan HobgoodJordan Hobgood
142 Shadow Madness Feb 15, 2022 $14.99N/A (N/A)0 .. 20,0000%00:00 (00:00)CravePiko Interactive LLC, Bleem!
143 Rise of the Third Power Feb 10, 2022 $19.99N/A (N/A)0 .. 20,0000%00:00 (00:00)Stegosoft GamesDANGEN Entertainment
144 Old Salt Jan 19, 2022 $14.99N/A (N/A)0 .. 20,0000%00:00 (00:00)Kneeshaw Developments, Never Board GamesKneeshaw Developments
145 Neko Ghost, Jump! Jan 11, 2022 $14.99N/A (N/A)0 .. 20,0000%00:00 (00:00)Burgos GamesBurgos Games
146 Crowalt: Traces of the Lost Colony Jan 6, 2022 $12.99N/A (N/A)0 .. 20,0000%00:00 (00:00)Madcraft StudiosGrabTheGames
147 Big Booty Adventures Jan 5, 2022 $8.99N/A (N/A)50,000 .. 100,0000%00:00 (00:00)NeVReal StudiosNeVReal Studios
148 Istanbul Ship Simulator Dec 20, 2021 $3.99N/A (N/A)0 .. 20,0000%00:00 (00:00)Sevisen StudiosSevisen Studios
149 Rust Raiders Dec 20, 2021 $4.99N/A (N/A)0 .. 20,0000%00:00 (00:00)Overlord Game StudioOverlord Game Studio
150 Match Three Pirates II Dec 16, 2021 $4.99N/A (N/A)0 .. 20,0000%00:00 (00:00)Graphium StudioDenda Games
151 Trails Of Gold Privateers Dec 16, 2021 $12.99N/A (N/A)0 .. 20,0000%00:00 (00:00)La Suite StudioLa Suite Studio, Plug In Digital
152 Trash Sailors Dec 16, 2021 $19.99N/A (N/A)20,000 .. 50,0000%00:00 (00:00)fluckyMachinetinyBuild
153 Cleo - a pirate's tale Dec 12, 2021 $14.99N/A (N/A)0 .. 20,0000%00:00 (00:00)Christoph SchultzGreycap Audiovisual Mediadesign UG
154 Cloud Escape Dec 12, 2021 $4.99N/A (N/A)20,000 .. 50,0000%00:00 (00:00)Andreas BaumAndreas Baum
155 Hero of the Kingdom: The Lost Tales 2 Nov 19, 2021 $6.99N/A (N/A)20,000 .. 50,0000%00:00 (00:00)Lonely TroopsLonely Troops
156 Coin Treasures Nov 8, 2021 FreeN/A (N/A)0 .. 20,0000%00:00 (00:00)BraincircusBraincircus
157 Peachleaf Pirates Sep 27, 2021 $6.99N/A (N/A)0 .. 20,0000%00:00 (00:00)Dog Kiss StudioDigerati
158 Plunder Panic Sep 17, 2021 $9.99N/A (N/A)20,000 .. 50,0000%00:00 (00:00)Will Winn GamesWill Winn Games
159 The Chaser's Voyage Sep 17, 2021 $19.99N/A (N/A)0 .. 20,0000%00:00 (00:00)Bright at Midnight: A Game StudioBright at Midnight: A Game Studio
160 100 hidden cups Sep 15, 2021 $0.99N/A (N/A)0 .. 20,0000%00:00 (00:00)Anatoliy Loginovskikh, Igor ShalimovAnatoliy Loginovskikh
161 Table of Tales: The Crooked Crown Sep 14, 2021 $19.99N/A (N/A)0 .. 20,0000%00:00 (00:00)Tin Man Games, Zero One StudioTin Man Games
162 In Search of Fon Vitae Aug 30, 2021 $4.99N/A (N/A)0 .. 20,0000%00:00 (00:00)EarlgreyEarlgrey
163 A Winding Path Aug 26, 2021 $7.99N/A (N/A)0 .. 20,0000%00:00 (00:00)Three Eyed GamesThree Eyed Games
164 VR Pirates of the Caribbean Life Experience Aug 25, 2021 $4.99N/A (N/A)0 .. 20,0000%00:00 (00:00)William at OxfordWilliam at Oxford
165 Hidden Shapes Black Skull - Jigsaw Puzzle Game Aug 11, 2021 $1.99N/A (N/A)0 .. 20,0000%00:00 (00:00)YAW StudiosYAW Studios
166 Seafarers Aug 1, 2021 $4.99N/A (N/A)0 .. 20,0000%00:00 (00:00)Egghead Interactive LLC.Egghead Interactive LLC.
167 Historic Fighters Jul 30, 2021 N/AN/A (N/A)100,000 .. 200,0000%00:00 (00:00)QVIK GAMEZQVIK GAMEZ
168 Furious Seas Jul 18, 2021 $19.99N/A (N/A)0 .. 20,0000%00:00 (00:00)Future ImmersiveFuture Immersive
169 Pugmire: Treasure of the Sea Dogs Jul 15, 2021 $3.99N/A (N/A)0 .. 20,0000%00:00 (00:00)Choice of GamesChoice of Games
170 Walkabout Mini Golf VR Jul 15, 2021 $14.99N/A (N/A)50,000 .. 100,0000%00:00 (00:00)Mighty CoconutMighty Coconut
171 Salt and Sails Jul 1, 2021 $9.99N/A (N/A)0 .. 20,0000%00:00 (00:00)DiaMMaxPiece Of Voxel
172 Antiprism Jun 21, 2021 $17.99N/A (N/A)0 .. 20,0000%00:00 (00:00)Zero FunZero Fun
173 Super Sunny Island Jun 17, 2021 $4.99N/A (N/A)0 .. 20,0000%00:00 (00:00)lightUPlightUP
174 Build Em' Faster Jun 7, 2021 $5.99N/A (N/A)0 .. 20,0000%00:00 (00:00)CrooLabCrooLab
175 Girls' civilization 2 Jun 1, 2021 $12.99N/A (N/A)0 .. 20,0000%00:00 (00:00)MoondolinoMoondolino
176 Loot Slider Jun 1, 2021 $7.99N/A (N/A)0 .. 20,0000%00:00 (00:00)Retrofied GamesRetrofied Games
177 I Am the Captain Now May 27, 2021 $8.99N/A (N/A)0 .. 20,0000%00:00 (00:00)North Lake GamesNorth Lake Games
178 King of Seas May 25, 2021 $24.99N/A (N/A)20,000 .. 50,0000%00:00 (00:00)3DCloudsTeam17
179 Crafty May 23, 2021 $18.99N/A (N/A)0 .. 20,0000%00:00 (00:00)Wonder FactoryWonder Factory
180 Fish Person Shooter May 20, 2021 $12.99N/A (N/A)0 .. 20,0000%00:00 (00:00)8AH8AH
181 BARBAROS May 5, 2021 $10.99N/A (N/A)0 .. 20,0000%00:00 (00:00)Indie DeveloperIndie Developer
182 Golden Force Apr 22, 2021 $14.99N/A (N/A)0 .. 20,0000%00:00 (00:00)Storybird StudioNo Gravity Games
183 Cutthroat Cove Apr 18, 2021 $10.99N/A (N/A)0 .. 20,0000%00:00 (00:00)Wicked GamesWicked Games
184 Country Discoverer Apr 16, 2021 $7.99N/A (N/A)0 .. 20,0000%00:00 (00:00)goatrope gamesgoatrope games
185 Lair Hockey Apr 12, 2021 $9.99N/A (N/A)0 .. 20,0000%00:00 (00:00)Never Written GamesNever Written Games
186 Cosmic Tank Apr 7, 2021 $4.99N/A (N/A)20,000 .. 50,0000%00:00 (00:00)Game MastermindsGame Masterminds
187 Shell Shuffle Apr 1, 2021 $9.99N/A (N/A)20,000 .. 50,0000%00:00 (00:00)Victorian ClambakeVictorian Clambake
188 Pirate Story Mar 18, 2021 $1.99N/A (N/A)0 .. 20,0000%00:00 (00:00)Luci EntertainmentLuci Entertainment
189 boom faster Mar 15, 2021 $0.99N/A (N/A)0 .. 20,0000%00:00 (00:00)Crocodile and cactusCrocodile and cactus
190 Pirate Island Mar 13, 2021 $2.99N/A (N/A)0 .. 20,0000%00:00 (00:00)ImperiumGameImperiumGame
191 PIRATECRAFT Mar 12, 2021 $0.99N/A (N/A)0 .. 20,0000%00:00 (00:00)Game for gamesGame for games
192 Duel on Board Mar 4, 2021 $3.99N/A (N/A)0 .. 20,0000%00:00 (00:00)rebel rabbitindienova
193 Merchants of the Caribbean Mar 3, 2021 $6.99N/A (N/A)0 .. 20,0000%00:00 (00:00)GameOn ProductionAlawar Entertainment
194 Silent Sector Feb 17, 2021 $14.99N/A (N/A)0 .. 20,0000%00:00 (00:00)Rake in GrassRake in Grass
195 Pirate of Madagascar Island Feb 15, 2021 $3.74N/A (N/A)0 .. 20,0000%00:00 (00:00)Pranay MundaPranay Munda
196 Captains & Dungeons Feb 14, 2021 $4.99N/A (N/A)0 .. 20,0000%00:00 (00:00)Liprix GamesLiprix Games
197 Endless Voyage / 无尽航线 Jan 7, 2021 $16.99N/A (N/A)50,000 .. 100,0000%00:00 (00:00)Dalaran Game StudioKuYou Games
198 Timewalk Tower Defense Jan 1, 2021 FreeN/A (N/A)50,000 .. 100,0000%00:00 (00:00)Maxeymus GamesMaxeymus Games
199 Pinball Dec 29, 2020 $5.99N/A (N/A)0 .. 20,0000%00:00 (00:00)HubelHubel
200 Captain Pegleg Dec 27, 2020 $1.99N/A (N/A)0 .. 20,0000%00:00 (00:00)xeamxeam
201 Sink Again Dec 17, 2020 N/AN/A (N/A)20,000 .. 50,0000%00:00 (00:00)FlatcoonFlatcoon
202 Skycadia Dec 7, 2020 $9.99N/A (N/A)0 .. 20,0000%00:00 (00:00)Studio Nisse LLCStudio Nisse LLC
203 Frontiers Reach Nov 30, 2020 $19.99N/A (N/A)20,000 .. 50,0000%00:00 (00:00)Blind Alien ProductionsBlind Alien Productions
204 StoneTide: Age of Pirates Nov 27, 2020 $9.99N/A (N/A)0 .. 20,0000%00:00 (00:00)StoneTide EntertainmentStoneTide Entertainment
205 Captain Sabertooth and the Magic Diamond Nov 20, 2020 $34.99N/A (N/A)0 .. 20,0000%00:00 (00:00)Ravn Studio, Rock Pocket GamesZordix Publishing
206 Pocket Penguin ( ポケットペンギン): A Game Boy Style Adventure Nov 15, 2020 $5.99N/A (N/A)0 .. 20,0000%00:00 (00:00)Dog Biscuit StudiosDog Biscuit Studios
207 The Falconeer Nov 10, 2020 $19.99N/A (N/A)50,000 .. 100,0000%00:00 (00:00)Tomas SalaWired Productions
208 Be a Pirate Nov 9, 2020 $9.99N/A (N/A)0 .. 20,0000%00:00 (00:00)AmfichPiece Of Voxel
209 Blazing Sails Nov 5, 2020 $10.49N/A (N/A)100,000 .. 200,0000%00:00 (00:00)Get Up GamesIceberg Interactive
210 Out of Reach: Treasure Royale Oct 14, 2020 $14.99N/A (N/A)0 .. 20,0000%00:00 (00:00)Space Boat StudiosPlayWay S.A.
211 A pirate quartermaster Oct 2, 2020 $17.99N/A (N/A)0 .. 20,0000%00:00 (00:00)Ivan ArmandyIvan Armandy
212 Path to Prosperity Sep 18, 2020 $14.99N/A (N/A)0 .. 20,0000%00:00 (00:00)Essence GamesEssence Games
213 Poly Pirates Aug 15, 2020 $4.99N/A (N/A)0 .. 20,0000%00:00 (00:00)Daniel CrandallShroud Studios
214 Color Security Sep 6, 2020 FreeN/A (N/A)0 .. 20,0000%00:00 (00:00)TposeSoftwareTposeSoftware
215 Space Bar at the End of the Galaxy Aug 21, 2020 $4.99N/A (N/A)0 .. 20,0000%00:00 (00:00)Little Black Book EntertainmentLittle Black Book Entertainment
216 Aye Aye, Captain Aug 4, 2020 $9.99N/A (N/A)0 .. 20,0000%00:00 (00:00)North State GamesNorth State Games
217 Magic Archers Jul 27, 2020 $7.99N/A (N/A)0 .. 20,0000%00:00 (00:00)Village People GamesVillage People Games
218 My Sail And My Sea Jun 30, 2020 $2.99N/A (N/A)0 .. 20,0000%00:00 (00:00)心田游戏(Heart Field Games)心田游戏(Heart Field Games)
219 Cannon Father Jun 23, 2020 $5.99N/A (N/A)0 .. 20,0000%00:00 (00:00)Two Scoop StudioTwo Scoop Studio
220 Takelshin Jun 19, 2020 $3.99N/A (N/A)0 .. 20,0000%00:00 (00:00)MINBEKKERMINBEKKER
221 Sea of Thieves Jun 3, 2020 $39.99N/A (N/A)5,000,000 .. 10,000,0005.97%11:53 (07:59)Rare LtdXbox Game Studios
222 Rum & Gun May 1, 2020 $4.99N/A (N/A)0 .. 20,0000%00:00 (00:00)BoringtonBorington
223 Hecaton Apr 5, 2020 $4.99N/A (N/A)0 .. 20,0000%00:00 (00:00)NWatch GamesNWatch Games
224 Pirates? Pirates! Mar 30, 2020 $3.99N/A (N/A)0 .. 20,0000%00:00 (00:00)Amrita StudioAmrita Studio
225 ONE PIECE: PIRATE WARRIORS 4 Mar 26, 2020 $22.49N/A (N/A)500,000 .. 1,000,00010%03:29 (02:19)Koei TecmoBANDAI NAMCO Entertainment
226 Coffin Rot Brewing Co. Mar 13, 2020 $14.99N/A (N/A)0 .. 20,0000%00:00 (00:00)Nooner Bear Studio LLCClique Games
227 Horizon's Gate Mar 9, 2020 $19.99N/A (N/A)50,000 .. 100,0000%00:00 (00:00)Rad CodexRad Codex
228 Uniseas Dec 12, 2019 $2.99N/A (N/A)0 .. 20,0000%00:00 (00:00)Sokpop CollectiveSokpop Collective
229 Blackwake Feb 19, 2020 $0.49N/A (N/A)200,000 .. 500,0000%00:00 (00:00)Mastfire Studios Pty LtdMastfire Studios Pty Ltd
230 Void Destroyer 2 Feb 6, 2020 $19.99N/A (N/A)20,000 .. 50,0000%00:00 (00:00)Iteration 11Iteration 11
231 P1R4T3S Jan 31, 2020 $9.99N/A (N/A)0 .. 20,0000%00:00 (00:00)LLC Blini GamesLLC Blini Games
232 A Percent of a Pirate Jan 17, 2020 $0.99N/A (N/A)20,000 .. 50,0000%00:00 (00:00)LuminarkLuminark
233 kraken's curse Dec 8, 2018 $2.99N/A (N/A)0 .. 20,0000%00:00 (00:00)Sokpop CollectiveSokpop Collective
234 Sea King Dec 24, 2019 $4.99N/A (N/A)0 .. 20,0000%00:00 (00:00)Interactive StoneInteractive Stone
235 SugarMill Dec 19, 2019 $19.99N/A (N/A)0 .. 20,0000%00:00 (00:00)Aatlantis CodeAatlantis Code
236 XO Dec 2, 2019 $19.99N/A (N/A)0 .. 20,0000%00:00 (00:00)Jumpdrive StudiosJumpdrive Studios
237 Of Ships & Scoundrels Nov 14, 2019 $14.99N/A (N/A)0 .. 20,0000%00:00 (00:00)Korion GamesKorion Games
238 HAM-MASTER Nov 8, 2019 $1.99N/A (N/A)0 .. 20,0000%00:00 (00:00)Maick PaimPequi studios
239 Abandon Ship Oct 22, 2019 $24.99N/A (N/A)50,000 .. 100,0000%00:00 (00:00)Fireblade SoftwareFireblade Software
240 Feral Blue Oct 22, 2019 $19.99N/A (N/A)0 .. 20,0000%00:00 (00:00)Snowbird GamesSnowbird Games
241 Mutiny Island Oct 18, 2019 $7.99N/A (N/A)20,000 .. 50,0000%00:00 (00:00)ElushisElushis Music & Gaming
242 Seacurity Breach Sep 20, 2019 $9.99N/A (N/A)0 .. 20,0000%00:00 (00:00)SoaphogSoaphog
243 Blackbeard the Cursed Jungle Sep 18, 2019 $0.99N/A (N/A)20,000 .. 50,0000%00:00 (00:00)Boogygames StudiosBoogygames Studios
244 Buoyancy Aug 30, 2019 $12.99N/A (N/A)20,000 .. 50,0000%00:00 (00:00)Devs on a BoatDevs on a Boat
245 Uncharted Tides: Port Royal Aug 29, 2019 $3.74N/A (N/A)0 .. 20,0000%00:00 (00:00)Cordelia GamesArtifex Mundi
246 Pirates Are BLANKing Awesome Jul 17, 2019 $1.99N/A (N/A)0 .. 20,0000%00:00 (00:00)Poorwill GamesPoorwill Games
247 Naval Action Jun 13, 2019 $19.99N/A (N/A)200,000 .. 500,00010%03:07 (01:02)Game-LabsGame-Labs
248 Giant Life Jun 7, 2019 $9.99N/A (N/A)0 .. 20,0000%00:00 (00:00)PatagoniartPatagoniart
249 Black Baron May 29, 2019 $10.99N/A (N/A)0 .. 20,0000%00:00 (00:00)toR StudiotoR Studio
250 Sail and Sacrifice May 23, 2019 $19.99N/A (N/A)0 .. 20,0000%00:00 (00:00)CAGE StudiosCAGE Studios
251 Ferret Scoundrels May 9, 2019 $19.99N/A (N/A)0 .. 20,0000%00:00 (00:00)Cryogenic EntertainmentCryogenic Entertainment
252 Match Three Pirates! Heir to Davy Jones Feb 27, 2019 $2.99N/A (N/A)0 .. 20,0000%00:00 (00:00)Graphium StudioDenda Games
253 Privateers Apr 18, 2019 $9.99N/A (N/A)0 .. 20,0000%00:00 (00:00)Monster TreeMonster Tree
254 Sticks And Bones Mar 28, 2019 $5.99N/A (N/A)20,000 .. 50,0000%00:00 (00:00)Mohammad ArkobiMohammad Arkobi
255 Shipped Mar 28, 2019 $5.99N/A (N/A)20,000 .. 50,0000%00:00 (00:00)MajorariattoMajorariatto
256 ONE PIECE World Seeker Mar 14, 2019 $8.99N/A (N/A)200,000 .. 500,00016.67%00:06 (00:02)GANBARION Co., Ltd.BANDAI NAMCO Entertainment
257 Block of Rum Feb 5, 2019 $1.39N/A (N/A)0 .. 20,0000%00:00 (00:00)Obi-WanyaObi-Wanya
258 Sea Birds: End of an Age Jan 1, 2019 $1.99N/A (N/A)0 .. 20,0000%00:00 (00:00)Kevin AdamsKevin Adams
259 ATLAS Dec 22, 2018 $29.99N/A (N/A)1,000,000 .. 2,000,0000%00:00 (00:00)Grapeshot Games, Instinct GamesGrapeshot Games
260 Heart of Moon : The Mask of Seasons Dec 6, 2018 $5.99N/A (N/A)0 .. 20,0000%00:00 (00:00)UnikgameUnikware
261 Pirates of the Polygon Sea Nov 30, 2018 $8.99N/A (N/A)0 .. 20,0000%00:00 (00:00)Praxia EntertainmentPraxia Entertainment
262 Swords and Sandals Pirates Nov 30, 2018 $6.99N/A (N/A)0 .. 20,0000%00:00 (00:00)Whiskeybarrel StudioseGames.com
263 Pirate Island Rescue Sep 17, 2018 $1.99N/A (N/A)20,000 .. 50,0000%00:00 (00:00)Bad Logic StudiosBad Logic Studios
264 Ink Plane Sep 16, 2018 $0.99N/A (N/A)0 .. 20,0000%00:00 (00:00)Artur PetrovArtur Petrov
265 Salty Seabird Bay Sep 11, 2018 $5.99N/A (N/A)0 .. 20,0000%00:00 (00:00)ZealwindZealwind
266 Flynn and Freckles Sep 7, 2018 $9.99N/A (N/A)0 .. 20,0000%00:00 (00:00)Rookie Hero GamesRookie Hero Games
267 Factory pirates Aug 24, 2018 $3.99N/A (N/A)0 .. 20,0000%00:00 (00:00)WhackAKey GamesBig Black Bear
268 Space Captain McCallery - Episode 1: Crash Landing Jul 20, 2018 $0.99N/A (N/A)20,000 .. 50,0000%00:00 (00:00)Renegade Sector GamesRenegade Sector Games
269 Adventure Time: Pirates of the Enchiridion Jul 17, 2018 $24.99N/A (N/A)0 .. 20,0000%00:00 (00:00)Climax StudiosOutright Games Ltd.
270 SAS Jun 6, 2018 $14.99N/A (N/A)20,000 .. 50,0000%00:00 (00:00)True Illusion SoftwareTrue Illusion Software
271 Cursed Lands May 18, 2018 $24.99N/A (N/A)0 .. 20,0000%00:00 (00:00)Winter WolvesWinter Wolves
272 Virtual Pirate VR May 11, 2018 $9.99N/A (N/A)0 .. 20,0000%00:00 (00:00)MAMMOSSIX Co., Ltd.MAMMOSSIX Co., Ltd.
273 Pirate Code Apr 24, 2018 $14.99N/A (N/A)0 .. 20,0000%00:00 (00:00)Circuit HiveCircuit Hive
274 Don't Sink Apr 13, 2018 $9.99N/A (N/A)20,000 .. 50,0000%00:00 (00:00)Fern Nigro, Christopher Anselmo, Daniel MarquesStudio Eris
275 HYKEE - Episode 1: Underwater Apr 13, 2018 $0.99N/A (N/A)0 .. 20,0000%00:00 (00:00)NachoNacho
276 Levantera: Tale of The Winds Apr 2, 2018 $9.99N/A (N/A)0 .. 20,0000%00:00 (00:00)Lasso Games, LLCLasso Games, LLC
277 The Pirate's Fate Mar 27, 2018 $19.99N/A (N/A)0 .. 20,0000%00:00 (00:00)T.F. Wright, VolkenfoxFoxWright Productions
278 Sea Dogs: Caribbean Tales Sep 12, 2006 $11.99N/A (N/A)0 .. 20,0000%00:00 (00:00)AkellaAkella
279 Salt Feb 6, 2018 $14.99N/A (N/A)50,000 .. 100,0000%00:00 (00:00)Lavaboots StudiosLavaboots Studios
280 VR Regatta - The Sailing Game Jan 30, 2018 $29.99N/A (N/A)0 .. 20,0000%00:00 (00:00)MarineVerseMarineVerse
281 Shadowhand: RPG Card Game Dec 7, 2017 $14.99N/A (N/A)0 .. 20,0000%00:00 (00:00)Grey Alien GamesPositech Games
282 Space Pirates And Zombies 2 Nov 7, 2017 $19.99N/A (N/A)200,000 .. 500,00011.11%00:12 (00:04)MinMax Games Ltd.MinMax Games Ltd.
283 Mutiny!! Oct 20, 2017 $9.99N/A (N/A)0 .. 20,0000%00:00 (00:00)LupiesoftLupiesoft, MangaGamer
284 Space Pirate Trainer Oct 12, 2017 $14.99N/A (N/A)200,000 .. 500,0000%00:00 (00:00)I-IllusionsI-Illusions
285 Captain vs Sky Pirates Oct 10, 2017 $2.99N/A (N/A)50,000 .. 100,0000%00:00 (00:00)Boogygames StudiosBoogygames Studios
286 Captain Firebeard and the Bay of Crows Oct 4, 2017 $9.99N/A (N/A)0 .. 20,0000%00:00 (00:00)Sapphire Dragon ProductionsSapphire Dragon Productions
287 战术狂想1(Chimera of Tactics 1) Sep 27, 2017 $0.99N/A (N/A)0 .. 20,0000%00:00 (00:00)自由愉悦小黄猫(Free pleasure little yellow cat)自由愉悦小黄猫(Free pleasure little yellow cat)
288 Battle of Frigates Sep 21, 2017 $2.99N/A (N/A)20,000 .. 50,0000%00:00 (00:00)Dmitriy Uvarov, Vyacheslav ShilikhinDroid Riot
289 The Caribbean Sail Sep 19, 2017 $14.99N/A (N/A)0 .. 20,0000%00:00 (00:00)Victorian ClambakeVictorian Clambake
290 Captain Backwater Sep 12, 2017 $6.99N/A (N/A)0 .. 20,0000%00:00 (00:00)IntermediawareIntermediaware
291 One Piece: Unlimited World Red - Deluxe Edition Aug 25, 2017 $5.99N/A (N/A)0 .. 20,0000%00:00 (00:00)GanbarionBANDAI NAMCO Entertainment
292 Cutthroat Gunboat Aug 11, 2017 $1.99N/A (N/A)0 .. 20,0000%00:00 (00:00)Minor FactionMinor Faction
Overview

Pirates

Games with this tag: 292
Average userscore: N/A%
Average metascore: 75.05%
Average playtime: 03:48
Total copies owned: 38,763,000
Average price: $11.02
Help

Owners: Estimated number of people owning this game. The number might be way too small for new releases and sometimes way too big for games that had free weekend event recently. Read more on About page.

Playtime: Average hours played in total per person that have actually launched this game since March 2009. This time is calculated for the whole lifetime, not for the particular year.

Average score: Average users and metacritic score for all games with this score assigned.

Average playtime: Average lifetime playtime for all games where this data is available.

Games in this genre: Self-explaining - number of games with this tag. Only inculdes games with sales data available.

Total copies owned: Refers to total copies of games with this tag acquired by users for the lifetime. Includes copies sold, downloaded for free and given out.

This number might be too small for recently released games or too big for games that had a free weekend in the last couple of months.

Graphs

Login required.

Please register or log in to see this information.

Login required.

Please register or log in to see this information.